When you browse on this site, cookies collect data to enhance your experience and personalize the content and advertising you see.
Visit our Privacy Policy to learn more. By continuing to use the site, you agree to this use of cookies and data.
  • en Suisse
  • Liste des pays
  • À 7 jours
  • Température de l'eau
  • Carte météo
  • Widgets météo
  • user-avatar
    Se connecter

    Météo par heure à Marseille

    Ce jour, 5 Juin, Vendredi

    Heure Température Précipitation Vent Pression Humidité
    00:00 +17°C° 0 mm 9 m/s 746 mmHg 64%
    01:00 +17°C° 0 mm 10 m/s 746 mmHg 64%
    02:00 +16°C° 0 mm 10 m/s 746 mmHg 64%
    03:00 +16°C° 0 mm 11 m/s 745 mmHg 65%
    04:00 +16°C° 0 mm 11 m/s 746 mmHg 64%
    05:00 +15°C° 0 mm 12 m/s 746 mmHg 63%
    06:00 +17°C° 0 mm 10 m/s 747 mmHg 62%
    07:00 +18°C° 0 mm 11 m/s 747 mmHg 58%
    08:00 +18°C° 0 mm 11 m/s 748 mmHg 55%
    09:00 +19°C° 0 mm 12 m/s 748 mmHg 51%
    10:00 +21°C° 0 mm 12 m/s 748 mmHg 47%
    11:00 +22°C° 0 mm 12 m/s 749 mmHg 42%
    12:00 +23°C° 0 mm 12 m/s 749 mmHg 35%
    13:00 +23°C° 0 mm 12 m/s 749 mmHg 37%
    14:00 +24°C° 0 mm 11 m/s 749 mmHg 38%
    15:00 +24°C° 0 mm 11 m/s 749 mmHg 40%
    16:00 +24°C° 0 mm 11 m/s 749 mmHg 43%
    17:00 +23°C° 0 mm 10 m/s 749 mmHg 46%
    18:00 +23°C° 0 mm 10 m/s 750 mmHg 49%
    19:00 +22°C° 0 mm 10 m/s 750 mmHg 52%
    20:00 +21°C° 0 mm 9 m/s 751 mmHg 55%
    21:00 +19°C° 0 mm 9 m/s 751 mmHg 57%
    22:00 +19°C° 0 mm 9 m/s 751 mmHg 59%
    23:00 +20°C° 0 mm 8 m/s 752 mmHg 61%

    Demain, 6 Juin, Samedi

    Heure Température Précipitation Vent Pression Humidité
    00:00 +18°C° 0 mm 8 m/s 752 mmHg 63%
    01:00 +18°C° 0 mm 7 m/s 752 mmHg 65%
    02:00 +18°C° 0 mm 7 m/s 752 mmHg 67%
    03:00 +17°C° 0 mm 7 m/s 752 mmHg 69%
    04:00 +18°C° 0 mm 7 m/s 752 mmHg 67%
    05:00 +18°C° 0 mm 7 m/s 752 mmHg 66%
    06:00 +18°C° 0 mm 7 m/s 752 mmHg 65%
    07:00 +21°C° 0 mm 6 m/s 752 mmHg 61%
    08:00 +22°C° 0 mm 6 m/s 752 mmHg 56%
    09:00 +23°C° 0 mm 6 m/s 752 mmHg 52%
    10:00 +24°C° 0 mm 6 m/s 752 mmHg 51%
    11:00 +24°C° 0 mm 6 m/s 752 mmHg 50%
    12:00 +26°C° 0 mm 7 m/s 752 mmHg 49%
    13:00 +26°C° 0 mm 6 m/s 751 mmHg 50%
    14:00 +26°C° 0 mm 6 m/s 751 mmHg 50%
    15:00 +26°C° 0 mm 6 m/s 751 mmHg 51%
    16:00 +26°C° 0 mm 5 m/s 751 mmHg 54%
    17:00 +25°C° 0 mm 5 m/s 750 mmHg 57%
    18:00 +23°C° 0 mm 4 m/s 750 mmHg 61%
    19:00 +22°C° 0 mm 4 m/s 750 mmHg 64%
    20:00 +22°C° 0 mm 3 m/s 751 mmHg 67%
    21:00 +21°C° 0 mm 3 m/s 751 mmHg 70%
    22:00 +21°C° 0.1 mm 3 m/s 751 mmHg 73%
    23:00 +20°C° 0.1 mm 3 m/s 751 mmHg 76%

    Après-demain, 7 Juin, Dimanche

    Heure Température Précipitation Vent Pression Humidité
    00:00 +20°C° 0.1 mm 3 m/s 751 mmHg 79%
    01:00 +20°C° 1.5 mm 3 m/s 750 mmHg 81%
    02:00 +19°C° 1.5 mm 3 m/s 750 mmHg 83%
    03:00 +19°C° 1.5 mm 4 m/s 750 mmHg 85%
    04:00 +19°C° 0 mm 3 m/s 750 mmHg 81%
    05:00 +20°C° 0 mm 3 m/s 750 mmHg 78%
    06:00 +20°C° 0 mm 2 m/s 750 mmHg 74%
    07:00 +21°C° 0 mm 3 m/s 750 mmHg 69%
    08:00 +22°C° 0 mm 4 m/s 750 mmHg 65%
    09:00 +23°C° 0 mm 5 m/s 751 mmHg 60%
    10:00 +23°C° 0.1 mm 5 m/s 751 mmHg 57%
    11:00 +24°C° 0.1 mm 6 m/s 751 mmHg 54%
    12:00 +24°C° 0.1 mm 7 m/s 751 mmHg 51%
    13:00 +24°C° 0 mm 7 m/s 751 mmHg 49%
    14:00 +24°C° 0 mm 7 m/s 750 mmHg 47%
    15:00 +24°C° 0 mm 7 m/s 750 mmHg 46%
    16:00 +24°C° 0 mm 7 m/s 750 mmHg 47%
    17:00 +23°C° 0 mm 7 m/s 750 mmHg 49%
    18:00 +23°C° 0 mm 6 m/s 750 mmHg 51%
    19:00 +22°C° 0 mm 6 m/s 751 mmHg 51%
    20:00 +21°C° 0 mm 5 m/s 751 mmHg 51%
    21:00 +21°C° 0 mm 5 m/s 752 mmHg 51%
    22:00 +20°C° 0 mm 5 m/s 751 mmHg 53%
    23:00 +20°C° 0 mm 5 m/s 751 mmHg 54%

    8 Juin, Lundi

    Heure Température Précipitation Vent Pression Humidité
    00:00 +19°C° 0 mm 6 m/s 751 mmHg 55%
    01:00 +19°C° 0 mm 6 m/s 751 mmHg 57%
    02:00 +17°C° 0 mm 6 m/s 751 mmHg 58%
    03:00 +17°C° 0 mm 6 m/s 751 mmHg 60%
    04:00 +17°C° 0 mm 6 m/s 751 mmHg 59%
    05:00 +17°C° 0 mm 6 m/s 751 mmHg 59%
    06:00 +17°C° 0 mm 6 m/s 751 mmHg 58%
    07:00 +19°C° 0 mm 6 m/s 752 mmHg 55%
    08:00 +20°C° 0 mm 6 m/s 752 mmHg 52%
    09:00 +20°C° 0 mm 6 m/s 752 mmHg 49%
    10:00 +22°C° 0 mm 5 m/s 752 mmHg 44%
    11:00 +23°C° 0 mm 5 m/s 752 mmHg 40%
    12:00 +26°C° 0 mm 5 m/s 752 mmHg 35%
    13:00 +26°C° 0 mm 6 m/s 752 mmHg 35%
    14:00 +26°C° 0 mm 7 m/s 752 mmHg 35%
    15:00 +26°C° 0 mm 7 m/s 751 mmHg 36%
    16:00 +24°C° 0 mm 7 m/s 751 mmHg 39%
    17:00 +24°C° 0 mm 7 m/s 751 mmHg 43%
    18:00 +23°C° 0 mm 7 m/s 751 mmHg 46%
    19:00 +22°C° 0 mm 6 m/s 752 mmHg 47%
    20:00 +21°C° 0 mm 6 m/s 752 mmHg 48%
    21:00 +21°C° 0 mm 6 m/s 753 mmHg 49%
    22:00 +20°C° 0 mm 6 m/s 753 mmHg 52%
    23:00 +19°C° 0 mm 6 m/s 753 mmHg 56%

    9 Juin, Mardi

    Heure Température Précipitation Vent Pression Humidité
    00:00 +19°C° 0 mm 6 m/s 753 mmHg 60%
    01:00 +17°C° 0 mm 6 m/s 753 mmHg 62%
    02:00 +17°C° 0 mm 6 m/s 753 mmHg 65%
    03:00 +16°C° 0 mm 6 m/s 752 mmHg 67%
    04:00 +17°C° 0 mm 6 m/s 753 mmHg 66%
    05:00 +17°C° 0 mm 6 m/s 753 mmHg 66%
    06:00 +17°C° 0 mm 6 m/s 753 mmHg 65%
    07:00 +18°C° 0 mm 7 m/s 753 mmHg 60%
    08:00 +21°C° 0 mm 7 m/s 753 mmHg 56%
    09:00 +22°C° 0 mm 7 m/s 753 mmHg 51%
    10:00 +23°C° 0 mm 7 m/s 753 mmHg 49%
    11:00 +24°C° 0 mm 8 m/s 753 mmHg 46%
    12:00 +24°C° 0 mm 8 m/s 753 mmHg 44%
    13:00 +24°C° 0.1 mm 8 m/s 753 mmHg 44%
    14:00 +26°C° 0.1 mm 8 m/s 753 mmHg 44%
    15:00 +26°C° 0.1 mm 9 m/s 753 mmHg 44%
    16:00 +24°C° 0 mm 9 m/s 753 mmHg 45%
    17:00 +23°C° 0 mm 9 m/s 753 mmHg 47%
    18:00 +22°C° 0 mm 8 m/s 753 mmHg 48%
    19:00 +21°C° 0 mm 9 m/s 753 mmHg 53%
    20:00 +19°C° 0 mm 9 m/s 754 mmHg 57%
    21:00 +18°C° 0 mm 9 m/s 754 mmHg 62%
    22:00 +18°C° 0 mm 8 m/s 754 mmHg 64%
    23:00 +17°C° 0 mm 8 m/s 754 mmHg 67%

    10 Juin, Mercredi

    Heure Température Précipitation Vent Pression Humidité
    00:00 +17°C° 0 mm 8 m/s 754 mmHg 69%
    01:00 +16°C° 0 mm 8 m/s 754 mmHg 71%
    02:00 +16°C° 0 mm 8 m/s 754 mmHg 72%
    03:00 +16°C° 0 mm 7 m/s 754 mmHg 74%
    04:00 +16°C° 0 mm 7 m/s 754 mmHg 72%
    05:00 +17°C° 0 mm 7 m/s 754 mmHg 71%
    06:00 +17°C° 0 mm 7 m/s 754 mmHg 69%
    07:00 +18°C° 0 mm 7 m/s 754 mmHg 64%
    08:00 +21°C° 0 mm 7 m/s 755 mmHg 59%
    09:00 +22°C° 0 mm 7 m/s 755 mmHg 54%
    10:00 +23°C° 0.1 mm 7 m/s 755 mmHg 52%
    11:00 +23°C° 0.1 mm 7 m/s 755 mmHg 51%
    12:00 +24°C° 0.1 mm 7 m/s 755 mmHg 49%
    13:00 +24°C° 0.1 mm 8 m/s 755 mmHg 48%
    14:00 +24°C° 0.1 mm 8 m/s 755 mmHg 47%
    15:00 +24°C° 0.1 mm 8 m/s 754 mmHg 47%
    16:00 +24°C° 0 mm 7 m/s 755 mmHg 49%
    17:00 +23°C° 0 mm 7 m/s 755 mmHg 51%
    18:00 +22°C° 0 mm 7 m/s 755 mmHg 53%
    19:00 +21°C° 0 mm 7 m/s 755 mmHg 58%
    20:00 +20°C° 0 mm 7 m/s 755 mmHg 63%
    21:00 +18°C° 0 mm 7 m/s 755 mmHg 68%
    22:00 +17°C° 0 mm 6 m/s 755 mmHg 70%
    23:00 +17°C° 0 mm 6 m/s 755 mmHg 72%
    Voir plus